[[{"header":{"parameterUnit":"m.s-1","parameterCategory":1,"la1":30.2991,"la2":30.254,"lo1":-89.0895,"lo2":-89.0444,"dy":0.0017,"dx":0.0017,"nx":28,"ny":28,"refTime":"2025-11-16T09:00:00:Z","depth":0,"parameterNumber":2,"parameterNumberName":"U-component_of_WINDS"},"data":[0,0,0,0,0,0,0,0,0,0,0,0,0,0,0,0,0,0,0,0,0,0,0,0,0,0,0,0,0,0,0,0,0,0,0,0,0,0,0,0,0,0,0,0,0,0,0,0,0,0,0,0,0,0,0,0,0,0,0.6001,0.6002,0,0.608,0.6081,0.6082,0.6075,0.6074,0.6073,0.6072,0.6155,0.6158,0.6162,0,0,0,0,0,0,0,0,0,0,0,0,0,0.5847,0.585,0.6001,0.6002,0.6003,0.608,0.6081,0.6082,0.6075,0.6074,0.6072,0.6071,0.6154,0.6158,0.6162,0,0,0,0,0,0,0,0,0,0,0,0,0,0.5919,0.5851,0.6001,0.6009,0.601,0.6079,0.6081,0.6082,0.6076,0.6074,0.6072,0.607,0.6153,0.6158,0.6163,0.623,0,0,0.6178,0.618,0,0,0,0,0,0,0,0,0.5915,0.5924,0.6007,0.6008,0.601,0.6066,0.6057,0.6132,0.6076,0.6051,0.6072,0.607,0.6127,0.6134,0.6153,0.6233,0.6237,0.6178,0.6181,0.6184,0.6185,0,0,0,0,0,0,0,0.591,0.5921,0.6032,0.6008,0.601,0.6009,0.6018,0.6071,0.6098,0.6053,0.6053,0.6062,0.6128,0.6148,0.6155,0.6238,0.6178,0.6183,0.6186,0.6188,0.6377,0.6379,0,0,0,0,0,0,0.5903,0.5917,0.603,0.6034,0.5957,0.6014,0.6023,0.605,0.6098,0.6103,0.6063,0.6061,0.614,0.6149,0.6158,0.6239,0.6184,0.6188,0.6191,0.6375,0.6378,0.638,0,0,0,0,0,0,0.5899,0.5913,0.6026,0.5976,0.599,0.6018,0.6049,0.6052,0.6073,0.6105,0.6111,0.6079,0.6139,0.6151,0.6211,0.6242,0.619,0.6195,0.6373,0.6376,0.6379,0.6403,0,0,0,0,0,0,0.5895,0.5912,0.5937,0.5976,0.5993,0.6078,0.605,0.6055,0.6081,0.6079,0.6122,0.6127,0.6139,0.6204,0.6216,0.6248,0.6199,0.637,0.6374,0.6378,0.6399,0.6406,0.6412,0,0,0,0,0,0.5889,0.5941,0.5938,0.5952,0.6025,0.608,0.609,0.6101,0.6083,0.6109,0.613,0.6126,0.6236,0.621,0.6224,0.6258,0.6369,0.6373,0.6378,0.6396,0.6405,0.6412,0,0,0,0,0,0,0.5905,0.5946,0.5944,0.6009,0.6041,0.6079,0.6112,0.611,0.6148,0.6145,0.6159,0.6169,0.623,0.625,0.622,0.6325,0.63,0.6308,0.631,0.6318,0.6324,0.6318,0.6203,0,0,0,0,0,0.5916,0.5957,0.5991,0.6045,0.6061,0.6084,0.6108,0.6115,0.6149,0.6162,0.6188,0.6222,0.6264,0.6292,0.6333,0.6402,0.6411,0.6432,0.6438,0.6443,0.645,0.6488,0.6497,0.6395,0.6395,0.6395,0,0,0.594,0.5967,0.5992,0.6049,0.6075,0.6117,0.6095,0.6141,0.6173,0.617,0.6228,0.6248,0.6287,0.6352,0.6382,0.6371,0.648,0.6449,0.6453,0.6457,0.6493,0.6503,0.6511,0.6398,0.6398,0.6397,0,0,0.6004,0.6029,0.6077,0.6103,0.6141,0.6155,0.6167,0.6205,0.6218,0.6277,0.6275,0.6313,0.6386,0.6414,0.6437,0.6511,0.6509,0.6524,0.6558,0.6595,0.6603,0.661,0.6636,0.6646,0.6531,0.6531,0.6531,0,0.6029,0.6092,0.6102,0.6148,0.6174,0.6171,0.622,0.6245,0.6295,0.6313,0.6299,0.639,0.6416,0.6488,0.6506,0.6525,0.6539,0.652,0.66,0.6608,0.6615,0.664,0.665,0.6533,0.6532,0.6532,0.6532,0,0.612,0.6164,0.6199,0.6246,0.6275,0.6323,0.6341,0.6369,0.6373,0.6389,0.6449,0.648,0.6527,0.6544,0.6548,0.6616,0.6608,0.6597,0.6573,0.6626,0.665,0.666,0.6535,0.6534,0.6534,0.6533,0,0,0.6198,0.6249,0.6262,0.6283,0.6325,0.636,0.6407,0.6452,0.6476,0.6511,0.6551,0.6613,0.6603,0.6629,0.6637,0.6669,0.6726,0.6655,0.6656,0.6667,0.6803,0.6811,0.6822,0.6724,0.6726,0.6727,0.6799,0,0.6267,0.635,0.636,0.6434,0.6475,0.6473,0.6514,0.6545,0.6561,0.6598,0.6617,0.666,0.6643,0.666,0.6691,0.6712,0.6753,0.6707,0.6762,0.6764,0.6753,0.6834,0.6843,0.691,0.6809,0.6811,0.6812,0,0.6358,0.6394,0.6472,0.6508,0.6525,0.6562,0.6604,0.664,0.6674,0.6684,0.6713,0.6716,0.6766,0.6739,0.6808,0.6776,0.6799,0.6813,0.6816,0.6822,0.6791,0.6843,0.6931,0.6941,0.6827,0.6826,0.6824,0,0.6407,0.6475,0.653,0.6549,0.6592,0.6618,0.6637,0.667,0.6696,0.6733,0.675,0.6792,0.6816,0.6849,0.6864,0.6843,0.6932,0.6906,0.6942,0.6941,0.6961,0.696,0.7055,0.6975,0.6975,0.6975,0.6975,0,0.6483,0.6531,0.6553,0.6587,0.664,0.6652,0.6705,0.6723,0.6752,0.679,0.6792,0.6827,0.6844,0.6883,0.6895,0.695,0.6961,0.6971,0.6973,0.6971,0.697,0.6986,0.6982,0.6978,0.6977,0.6977,0.6976,0,0.6547,0.6564,0.6624,0.6659,0.6669,0.6707,0.6738,0.6771,0.6786,0.6835,0.6847,0.6871,0.6917,0.6934,0.6991,0.6999,0.7062,0.7061,0.705,0.7051,0.7086,0.7082,0.7195,0.7211,0.7121,0.7122,0.7123,0,0.6595,0.6631,0.667,0.6695,0.6715,0.6756,0.6782,0.6795,0.6822,0.6864,0.6893,0.6938,0.6974,0.7047,0.7071,0.7114,0.7114,0.715,0.712,0.7116,0.7115,0.7112,0.7116,0.7156,0.7157,0.7158,0.7158,0,0.6678,0.6684,0.6721,0.6762,0.6793,0.6825,0.6857,0.6878,0.6896,0.6927,0.6973,0.7001,0.7057,0.7102,0.7146,0.7167,0.7166,0.7167,0.7178,0.7176,0.7168,0.7173,0.7066,0.7165,0.7164,0.7164,0.7163,0.7163,0.6735,0.6767,0.6799,0.6841,0.6866,0.6896,0.6929,0.6948,0.6986,0.7032,0.7037,0.7087,0.712,0.7179,0.7201,0.7241,0.7231,0.7247,0.725,0.7254,0.7256,0.7161,0.7249,0.7249,0.7249,0.7248,0.7248,0,0.6818,0.6838,0.6877,0.692,0.6953,0.6948,0.6983,0.7011,0.7054,0.7085,0.7121,0.7174,0.7217,0.7243,0.7287,0.7313,0.7314,0.7325,0.7323,0.7328,0.7262,0.7249,0.7323,0.7323,0.7323,0.7323,0.7323,0.7323,0.6865,0.6919,0.6929,0.6996,0.7016,0.7064,0.7084,0.7111,0.7136,0.7194,0.723,0.7246,0.7276,0.7322,0.7361,0.7368,0.7384,0.7396,0.7402,0.734,0.7332,0.7325,0.7312,0.7399,0.7399,0.7464,0.7464,0.7465]},{"header":{"parameterUnit":"m.s-1","parameterCategory":1,"la1":30.2991,"la2":30.254,"lo1":-89.0895,"lo2":-89.0444,"dy":0.0017,"dx":0.0017,"nx":28,"ny":28,"refTime":"2025-11-16T09:00:00:Z","depth":0,"parameterNumber":3,"parameterNumberName":"V-component_of_WINDS"},"data":[0,0,0,0,0,0,0,0,0,0,0,0,0,0,0,0,0,0,0,0,0,0,0,0,0,0,0,0,0,0,0,0,0,0,0,0,0,0,0,0,0,0,0,0,0,0,0,0,0,0,0,0,0,0,0,0,0,0,-0.0802,-0.0802,0,-0.0866,-0.0867,-0.0868,-0.09,-0.09,-0.09,-0.09,-0.097,-0.0972,-0.0974,0,0,0,0,0,0,0,0,0,0,0,0,0,-0.0711,-0.0713,-0.0802,-0.0802,-0.0803,-0.0866,-0.0867,-0.0868,-0.09,-0.09,-0.09,-0.09,-0.0969,-0.0972,-0.0974,0,0,0,0,0,0,0,0,0,0,0,0,0,-0.0761,-0.0713,-0.0801,-0.0826,-0.0829,-0.0866,-0.0867,-0.0868,-0.09,-0.09,-0.09,-0.09,-0.0969,-0.0971,-0.0974,-0.0992,0,0,-0.0983,-0.0984,0,0,0,0,0,0,0,0,-0.0758,-0.0764,-0.0822,-0.0825,-0.0828,-0.0875,-0.0861,-0.091,-0.09,-0.0873,-0.09,-0.0899,-0.0939,-0.0944,-0.0956,-0.0995,-0.0998,-0.0983,-0.0985,-0.0986,-0.0987,0,0,0,0,0,0,0,-0.0754,-0.0761,-0.0827,-0.0823,-0.0827,-0.0836,-0.0843,-0.087,-0.0905,-0.0875,-0.0878,-0.0885,-0.094,-0.0953,-0.0958,-0.0999,-0.0983,-0.0986,-0.0987,-0.0988,-0.1059,-0.106,0,0,0,0,0,0,-0.0746,-0.0758,-0.0825,-0.0829,-0.0792,-0.0838,-0.0846,-0.086,-0.0905,-0.0912,-0.0885,-0.0886,-0.0949,-0.0955,-0.0961,-0.0986,-0.0986,-0.0989,-0.099,-0.1059,-0.1059,-0.106,0,0,0,0,0,0,-0.0744,-0.0752,-0.0823,-0.0794,-0.0804,-0.0839,-0.0855,-0.0861,-0.0874,-0.0912,-0.0919,-0.0891,-0.0949,-0.0957,-0.0984,-0.0989,-0.099,-0.0993,-0.1059,-0.1059,-0.106,-0.1036,0,0,0,0,0,0,-0.0741,-0.0751,-0.0756,-0.0794,-0.0806,-0.0843,-0.0855,-0.0862,-0.0878,-0.0881,-0.092,-0.0927,-0.0949,-0.098,-0.0987,-0.0993,-0.0995,-0.1059,-0.1059,-0.1059,-0.1036,-0.1035,-0.1034,0,0,0,0,0,-0.0738,-0.0748,-0.0757,-0.0764,-0.0813,-0.0843,-0.085,-0.0875,-0.0879,-0.0886,-0.0911,-0.0925,-0.0987,-0.0982,-0.0991,-0.0997,-0.1059,-0.1059,-0.1059,-0.1037,-0.1035,-0.1034,0,0,0,0,0,0,-0.071,-0.0753,-0.0763,-0.0785,-0.081,-0.0849,-0.0858,-0.0872,-0.0898,-0.0899,-0.093,-0.0939,-0.0964,-0.0984,-0.0978,-0.1019,-0.1025,-0.1027,-0.1004,-0.1003,-0.1002,-0.0997,-0.0997,0,0,0,0,0,-0.0707,-0.0726,-0.0763,-0.0779,-0.0791,-0.0822,-0.0836,-0.0853,-0.0881,-0.0892,-0.0919,-0.0947,-0.0973,-0.0989,-0.1015,-0.104,-0.105,-0.1049,-0.1047,-0.1046,-0.1048,-0.1064,-0.1065,-0.1061,-0.1061,-0.1061,0,0,-0.0699,-0.0725,-0.0736,-0.0774,-0.0795,-0.0817,-0.0831,-0.0852,-0.0869,-0.0896,-0.0924,-0.0945,-0.0978,-0.1004,-0.1017,-0.1022,-0.1051,-0.1047,-0.1046,-0.1048,-0.1065,-0.1065,-0.1065,-0.1061,-0.1061,-0.1061,0,0,-0.0697,-0.0718,-0.0734,-0.0755,-0.0788,-0.0809,-0.0813,-0.0849,-0.0864,-0.0892,-0.0913,-0.0935,-0.0978,-0.1002,-0.1019,-0.1028,-0.1044,-0.1036,-0.1031,-0.1046,-0.1047,-0.1047,-0.1052,-0.1053,-0.1037,-0.1037,-0.1037,0,-0.0685,-0.0716,-0.0741,-0.0762,-0.0779,-0.0803,-0.0821,-0.0841,-0.0881,-0.0893,-0.0897,-0.0953,-0.0978,-0.1011,-0.1013,-0.1026,-0.1033,-0.1031,-0.1044,-0.1045,-0.1046,-0.105,-0.1052,-0.1036,-0.1036,-0.1037,-0.1037,0,-0.0699,-0.0721,-0.0731,-0.0767,-0.0785,-0.0804,-0.0835,-0.0851,-0.0867,-0.0888,-0.0918,-0.0948,-0.0981,-0.099,-0.1006,-0.1027,-0.1028,-0.1038,-0.1045,-0.1044,-0.105,-0.1051,-0.1035,-0.1035,-0.1035,-0.1036,0,0,-0.068,-0.0731,-0.0735,-0.0752,-0.079,-0.0809,-0.083,-0.0862,-0.0875,-0.0903,-0.0923,-0.096,-0.0969,-0.0989,-0.1009,-0.1022,-0.103,-0.1031,-0.1032,-0.103,-0.1056,-0.1049,-0.105,-0.104,-0.1041,-0.1041,-0.1053,0,-0.0684,-0.0721,-0.0746,-0.0775,-0.0796,-0.0821,-0.084,-0.0867,-0.0888,-0.0911,-0.0936,-0.0962,-0.0972,-0.0984,-0.0999,-0.1025,-0.1035,-0.1025,-0.1061,-0.1062,-0.1052,-0.1053,-0.1045,-0.1055,-0.1055,-0.1056,-0.1056,0,-0.0693,-0.0718,-0.0749,-0.0786,-0.0796,-0.0813,-0.0845,-0.0865,-0.0898,-0.0912,-0.0935,-0.0955,-0.0982,-0.0986,-0.1024,-0.1017,-0.1033,-0.1049,-0.105,-0.1055,-0.1059,-0.1058,-0.1058,-0.106,-0.1059,-0.1059,-0.1059,0,-0.0677,-0.0719,-0.0743,-0.0758,-0.0802,-0.0813,-0.0832,-0.0864,-0.0882,-0.0911,-0.0923,-0.0955,-0.0973,-0.0998,-0.1027,-0.1027,-0.1062,-0.1069,-0.1077,-0.1076,-0.1083,-0.1082,-0.1087,-0.1093,-0.1093,-0.1093,-0.1093,0,-0.0678,-0.0696,-0.0737,-0.0752,-0.0774,-0.0803,-0.0824,-0.0846,-0.0874,-0.0896,-0.092,-0.094,-0.0977,-0.1002,-0.1025,-0.1054,-0.1061,-0.1076,-0.1082,-0.1073,-0.1072,-0.1085,-0.1085,-0.1093,-0.1093,-0.1093,-0.1093,0,-0.0664,-0.0691,-0.072,-0.0759,-0.077,-0.0784,-0.082,-0.0836,-0.0859,-0.0886,-0.0894,-0.0931,-0.0962,-0.0994,-0.1036,-0.1052,-0.108,-0.1088,-0.1069,-0.1072,-0.1079,-0.1078,-0.1092,-0.1096,-0.1099,-0.1098,-0.1098,0,-0.0663,-0.0677,-0.0719,-0.0734,-0.0752,-0.0777,-0.0795,-0.0826,-0.0844,-0.0883,-0.0896,-0.0928,-0.0956,-0.1005,-0.1037,-0.107,-0.1079,-0.1082,-0.1084,-0.1076,-0.108,-0.1079,-0.1082,-0.1081,-0.1081,-0.108,-0.108,0,-0.0659,-0.0672,-0.0697,-0.0727,-0.0748,-0.0774,-0.0801,-0.0813,-0.0849,-0.0869,-0.09,-0.0922,-0.0965,-0.0998,-0.1035,-0.1057,-0.1076,-0.1079,-0.1083,-0.1075,-0.1064,-0.1071,-0.1066,-0.1079,-0.1079,-0.1079,-0.1079,-0.1079,-0.0652,-0.0666,-0.0698,-0.0726,-0.0749,-0.0774,-0.0792,-0.0817,-0.0843,-0.088,-0.0897,-0.0929,-0.0964,-0.1015,-0.1037,-0.1064,-0.1069,-0.1074,-0.1076,-0.1077,-0.1075,-0.1059,-0.1071,-0.1071,-0.1072,-0.1072,-0.1072,0,-0.065,-0.0672,-0.0697,-0.0733,-0.0755,-0.077,-0.0801,-0.0819,-0.0846,-0.0876,-0.0903,-0.094,-0.0973,-0.1008,-0.1043,-0.1058,-0.1068,-0.1066,-0.1066,-0.1071,-0.1068,-0.1062,-0.1058,-0.1058,-0.1058,-0.1058,-0.1058,-0.1058,-0.0651,-0.0677,-0.0695,-0.0733,-0.0756,-0.0786,-0.0803,-0.0827,-0.0851,-0.0891,-0.0918,-0.094,-0.0973,-0.1011,-0.1042,-0.1052,-0.1065,-0.1061,-0.1073,-0.107,-0.1071,-0.1072,-0.1066,-0.1063,-0.1063,-0.1074,-0.1074,-0.1074]}]]